SCP
0 0 0 0 0 0 0 0 0 0 0 0 0 0 0 0 1 1 1 0 0 0 0 0 0 0 0 0 0 0 0 0 0 0 0 0 0 0 0 0 0 0 0 0
0 0 0 0 0 0 0 0 0 0 0 0 0 0 0 0 1 1 1 0 0 0 0 0 0 0 0 0 0 0 0 0 0 0 0 0 0 0 0 0 0 0 0 0
0 0 0 0 0 0 0 0 0 0 0 0 0 0 0 0 0 0 0 0 0 0 0 0 0 0 0 0 0 0 0 0 0 0 0 0 0 0 0 0 0 0 0 0
0 0 0 0 0 0 0 0 0 0 0 0 0 0 0 0 0 0 0 0 0 0 0 0 0 0 0 0 0 0 0 0 0 0 0 0 0 0 0 0 0 0 0 0
0 0 0 0 0 0 0 0 0 0 0 0 0 0 0 0 0 0 0 0 0 0 0 0 0 0 0 0 0 0 0 0 0 0 0 0 0 0 0 0 0 0 0 0
0 0 0 0 0 0 0 0 0 0 0 0 0 0 0 0 0 0 0 0 0 0 0 0 0 0 0 0 0 0 0 0 0 0 0 0 0 0 0 0 0 0 0 0
0 0 0 0 0 0 0 0 0 0 0 0 0 0 0 0 0 0 0 0 0 0 0 0 0 0 0 0 0 0 0 0 0 0 0 0 0 0 0 0 0 0 0 0
0 0 0 0 0 0 0 0 0 0 0 0 0 0 0 0 0 0 0 0 0 0 0 0 0 0 0 0 0 0 0 0 0 0 0 0 0 0 0 0 0 0 0 0
0 0 0 0 0 0 0 0 0 0 0 0 0 0 0 0 0 0 0 0 0 0 0 0 0 0 0 0 0 0 0 0 0 0 0 0 0 0 0 0 0 0 0 0
0 0 0 0 0 0 0 0 0 0 0 0 0 0 0 0 0 0 0 0 0 0 0 0 0 0 0 0 0 0 0 0 0 0 0 0 0 0 0 0 0 0 0 0
0 0 0 0 0 0 0 0 0 0 0 0 0 0 0 0 0 0 0 0 0 0 0 0 0 0 0 0 0 0 0 0 0 0 0 0 0 0 0 0 0 0 0 0
0 0 0 0 0 0 0 0 0 0 0 0 0 0 0 0 0 0 0 0 0 0 0 0 0 0 0 0 0 0 0 0 0 0 0 0 0 0 0 0 0 0 0 0
0 0 0 0 0 0 0 0 0 0 0 0 0 0 0 0 0 0 0 0 0 0 0 0 0 0 0 0 0 0 0 0 0 0 0 0 0 0 0 0 0 0 0 0
0 0 0 0 0 0 0 0 0 0 0 0 0 0 0 0 0 0 0 0 0 0 0 0 0 0 0 0 0 0 0 0 0 0 0 0 0 0 0 0 0 0 0 0
0 0 0 0 0 0 0 0 0 0 0 0 0 0 0 0 0 0 0 0 0 0 0 0 0 0 0 0 0 0 0 0 0 0 0 0 0 0 0 0 0 0 0 0
0 0 0 0 0 0 0 0 0 0 0 0 0 0 0 0 0 0 0 0 0 0 0 0 0 0 0 0 0 0 0 0 0 0 0 0 0 0 0 0 0 0 0 0
0 0 0 0 0 0 0 0 0 0 0 0 0 0 0 0 0 0 0 0 0 0 0 0 0 0 0 0 0 0 0 0 0 0 0 0 0 0 0 0 0 0 0 0
0 0 0 0 0 0 0 0 0 0 0 0 0 0 0 0 0 0 0 0 0 0 0 0 0 0 0 0 0 0 0 0 0 0 0 0 0 0 0 0 0 0 0 0
0 0 0 0 0 0 0 0 0 0 0 0 0 0 0 0 0 0 0 0 0 0 0 0 0 0 0 0 0 0 0 0 0 0 0 0 0 0 0 0 0 0 0 0
0 0 0 0 0 0 0 0 0 0 0 0 0 0 0 0 0 0 0 0 0 0 0 0 0 0 0 0 0 0 0 0 0 0 0 0 0 0 0 0 0 0 0 0
0 0 0 0 0 0 0 0 0 0 0 0 0 0 0 0 0 0 0 0 0 0 0 0 0 0 0 0 0 0 0 0 0 0 0 0 0 0 0 0 0 0 0 0
0 0 0 0 0 0 0 0 0 0 0 0 0 0 0 0 0 0 0 0 0 0 0 0 0 0 0 0 0 0 0 0 0 0 0 0 0 0 0 0 0 0 0 0
0 0 0 0 0 0 0 0 0 0 0 0 0 0 0 0 0 0 0 0 0 0 0 0 0 0 0 0 0 0 0 0 0 0 0 0 0 0 0 0 0 0 0 0
0 0 0 0 0 0 0 0 0 0 0 0 0 0 0 0 0 0 0 0 0 0 0 0 0 0 0 0 0 0 0 0 0 0 0 0 0 0 0 0 0 0 0 0
0 0 0 0 0 0 0 0 0 0 0 0 0 0 0 0 0 0 0 0 0 0 0 0 0 0 0 0 0 0 0 0 0 0 0 0 0 0 0 0 0 0 0 0
0 0 0 0 0 0 0 0 0 0 0 0 0 0 0 0 0 0 0 0 0 0 0 0 0 0 0 0 0 0 0 0 0 0 0 0 0 0 0 0 0 0 0 0
0 0 0 0 0 0 0 0 0 0 0 0 0 0 0 0 0 0 0 0 0 0 0 0 0 0 0 0 0 0 0 0 0 0 0 0 0 0 0 0 0 0 0 0
Wind_Speed
7 7 6 7 8 7 8 9 9 9 8 10 7 6 6 6 5 6 5 4 4 5 3 3 3 2 2 2 2 1 1 2 2 3 3 2 2 2 3 4 5 5 6 6
2 5 6 9 9 7 8 7 7 5 7 6 4 2 1 3 4 5 4 4 5 5 4 3 2 2 1 1 2 1 2 2 2 2 3 3 3 3 4 5 5 6 6 6
4 4 5 7 8 8 6 6 6 7 8 4 3 4 5 5 5 5 5 5 6 5 4 3 2 1 1 1 1 1 3 3 3 4 4 4 4 5 5 5 5 5 5 5
3 2 5 10 8 7 7 5 5 5 5 7 7 6 6 7 6 6 5 5 5 5 4 3 3 2 2 2 1 2 3 3 4 5 5 4 4 5 4 4 4 4 4 5
4 3 7 9 5 5 5 3 3 5 6 7 6 2 3 7 7 7 6 6 5 5 5 4 4 3 3 2 2 3 4 4 4 5 5 4 4 3 3 4 4 4 4 4
4 4 7 9 4 5 6 2 2 6 6 6 6 3 7 7 7 6 5 5 4 4 3 3 3 3 3 2 3 4 4 4 4 4 5 4 4 3 2 3 4 4 4 4
5 5 8 6 4 4 3 8 7 7 6 6 8 9 6 5 6 6 6 6 5 4 4 4 4 3 3 3 3 3 4 4 3 3 3 4 3 2 3 4 4 4 5 4
4 4 8 6 4 6 10 7 8 8 7 7 7 6 7 8 8 8 7 6 6 4 4 4 4 5 5 4 3 4 5 4 3 2 2 3 4 3 3 4 5 4 4 4
7 9 7 5 7 7 7 8 9 9 8 8 8 9 9 9 9 8 8 7 5 6 5 4 5 6 6 5 4 5 5 4 3 2 2 2 4 4 3 3 3 3 3 3
4 6 5 6 6 5 7 10 11 10 9 10 10 11 11 10 9 8 7 6 6 7 6 5 5 5 6 5 5 6 5 4 3 3 3 3 3 3 3 3 4 3 3 2
7 8 8 7 6 6 7 7 8 9 10 11 12 11 11 11 10 9 7 6 7 7 7 7 6 6 6 6 6 6 5 4 3 3 3 3 3 3 3 2 4 5 4 3
10 11 8 9 9 9 7 7 10 11 10 9 11 12 13 12 11 10 9 7 7 7 7 7 7 7 6 7 7 7 5 4 3 2 2 3 3 3 4 2 4 4 4 4
12 11 10 10 9 8 7 7 9 12 12 10 9 12 14 11 11 11 10 9 9 8 8 8 8 7 7 7 8 7 6 5 4 3 3 3 3 3 2 0 1 0 1 3
12 10 9 9 10 9 9 9 8 11 12 11 11 10 13 11 10 12 12 11 10 9 9 9 9 8 8 8 8 8 7 7 6 5 5 5 4 4 4 4 3 3 4 7
14 13 12 10 8 7 6 6 5 7 10 9 10 11 14 14 15 15 13 11 10 9 10 10 10 10 8 8 8 8 7 5 5 5 5 5 5 5 5 5 4 4 3 4
11 9 8 7 6 4 2 3 4 6 8 9 10 12 15 17 16 14 13 13 12 12 12 12 12 11 10 9 9 7 6 10 8 6 5 5 6 6 6 6 6 5 6 6
9 9 8 7 6 3 2 2 2 2 5 8 12 14 14 14 13 13 14 15 14 14 13 13 13 12 11 11 10 7 6 7 10 6 5 6 6 6 6 7 7 7 7 9
5 6 5 5 5 4 3 2 3 3 1 2 7 9 13 16 17 17 16 14 12 11 13 14 14 13 13 12 11 8 7 6 6 6 6 5 5 5 5 6 7 8 6 6
16 14 12 9 6 2 2 3 3 2 3 3 2 4 10 14 17 17 16 15 15 15 15 15 18 16 14 14 13 8 8 7 6 6 6 7 6 4 5 6 6 7 6 6
16 14 13 14 14 13 9 6 4 3 3 2 2 0 4 8 10 13 16 17 17 16 15 15 16 15 14 14 15 9 9 8 7 7 6 6 5 6 6 7 7 7 7 7
11 11 10 10 11 13 14 13 9 6 5 4 3 4 5 6 9 12 14 15 16 15 15 19 15 13 13 12 15 10 10 9 8 8 7 7 6 6 7 7 7 7 7 7
7 9 9 6 5 7 10 11 12 11 9 7 7 7 7 7 8 10 15 16 15 18 16 14 14 15 16 16 12 11 11 10 9 8 8 8 8 8 8 8 7 7 7 8
8 9 11 11 11 11 12 12 12 12 11 10 9 9 9 8 7 8 10 12 12 18 17 14 17 21 22 16 11 12 12 11 10 9 9 8 8 8 9 9 9 8 8 8
10 10 10 10 10 10 11 12 12 11 11 11 10 10 9 7 7 8 9 13 18 19 16 17 22 23 22 14 12 12 12 12 11 10 9 9 8 8 8 8 8 8 8 9
11 10 9 8 8 8 10 10 10 10 10 8 8 9 7 6 6 6 7 8 14 18 16 18 23 24 19 13 12 13 12 12 12 11 10 8 8 8 8 8 8 8 8 7
10 8 7 8 9 9 8 8 9 8 8 7 7 6 6 5 5 4 5 7 10 15 15 13 15 18 14 12 12 13 12 12 13 11 11 10 10 9 8 8 10 8 7 7
8 7 6 7 9 9 9 9 9 8 7 7 7 6 6 5 5 4 4 5 5 8 11 11 11 12 12 11 10 10 10 10 10 10 10 9 8 8 8 10 8 7 6 6
Wind_Direction
217 240 258 279 275 203 190 194 196 231 239 256 257 258 252 232 219 209 212 197 167 151 150 138 116 91 67 34 21 33 73 119 155 171 159 134 106 86 77 82 84 76 65 45
261 264 286 288 279 233 206 203 212 234 256 239 237 241 235 227 227 229 215 187 161 149 144 139 131 126 90 356 336 53 106 112 102 113 111 99 99 96 89 88 89 81 71 57
242 271 318 279 242 208 199 193 189 221 242 220 218 221 212 213 221 225 211 181 168 156 153 163 172 166 200 256 305 103 118 110 95 93 90 88 97 92 93 99 100 89 77 63
209 326 245 246 245 202 188 198 192 203 207 196 208 213 211 205 206 216 203 177 171 164 171 187 197 206 223 226 194 147 136 123 108 104 100 94 93 92 94 103 106 100 83 66
162 217 263 275 263 188 166 221 215 184 197 207 206 166 257 222 197 194 185 172 172 172 174 184 200 212 206 202 179 161 153 138 128 125 123 117 108 101 97 103 101 96 87 73
168 208 244 257 246 144 106 268 231 162 184 197 157 179 252 227 188 176 165 158 159 157 151 166 195 185 178 190 168 165 158 142 130 132 140 143 140 120 101 108 110 102 83 68
204 229 260 259 197 121 152 230 215 185 192 194 194 211 219 176 162 160 161 166 163 154 154 176 179 156 150 144 153 156 137 119 114 129 155 160 150 131 121 113 106 96 85 61
202 221 257 243 201 191 215 208 201 200 203 203 203 190 169 162 162 166 173 179 170 162 171 177 163 148 147 153 153 131 120 114 107 104 150 154 149 140 130 124 118 109 95 69
200 217 242 245 231 227 187 189 204 203 202 177 169 176 176 175 175 179 184 186 175 168 175 181 172 157 159 168 144 123 116 112 102 77 69 126 147 145 135 129 128 126 114 100
261 264 276 278 264 238 209 207 204 194 187 173 178 183 181 179 180 183 185 182 172 164 172 187 187 176 173 165 145 131 132 129 116 101 84 83 104 125 131 138 137 138 134 128
269 271 280 278 273 264 256 242 213 197 189 185 180 179 178 179 181 182 179 177 169 170 179 189 186 181 174 163 148 145 149 148 140 127 115 96 85 94 124 145 165 157 165 163
253 247 237 250 255 261 259 241 218 202 200 191 178 175 175 179 180 176 175 170 168 173 179 183 178 179 178 169 158 154 159 167 166 152 135 126 118 84 56 93 115 136 153 160
235 240 234 241 251 251 252 246 226 206 196 188 179 173 172 174 178 175 173 170 173 177 178 176 175 181 184 174 164 165 173 180 181 175 167 163 159 157 163 8 21 52 198 215
238 242 251 248 244 249 255 260 241 212 202 186 175 170 172 169 172 176 180 182 178 174 174 174 176 187 189 177 173 179 182 189 187 187 185 183 185 185 180 182 207 255 256 245
244 236 234 240 244 255 260 267 253 217 203 191 178 171 174 176 180 185 185 181 175 174 178 177 181 192 191 183 183 189 189 193 193 192 193 195 196 195 196 198 200 208 222 245
237 236 232 221 221 229 259 289 252 220 205 199 191 186 185 185 185 184 182 179 177 182 184 183 188 194 190 187 189 192 197 205 195 193 197 203 205 204 208 210 208 203 207 217
236 233 216 206 209 204 217 255 239 214 210 213 209 199 189 184 183 185 188 188 187 186 184 186 193 194 192 192 191 195 196 207 205 195 195 199 201 203 206 205 204 206 213 210
254 238 210 191 186 184 183 154 107 88 82 244 229 205 190 186 190 194 193 189 187 187 189 190 191 192 195 195 196 198 197 199 198 201 204 202 200 197 193 194 198 201 211 208
28 36 32 23 19 34 89 92 84 74 57 52 55 213 209 205 200 196 191 187 190 196 200 195 191 190 195 199 196 195 195 197 202 210 209 209 205 199 194 191 194 196 193 191
7 11 23 21 13 2 351 352 10 15 12 29 47 269 231 228 221 207 196 197 202 202 196 193 193 195 198 202 199 197 197 196 198 206 206 201 199 202 199 197 193 192 193 196
348 345 353 3 360 344 331 326 324 321 315 310 292 267 250 239 228 216 208 212 214 204 195 192 194 198 200 201 201 200 201 200 198 200 204 206 206 206 207 207 203 197 196 198
322 314 308 301 288 282 283 288 290 289 285 278 272 265 262 257 245 230 220 219 215 202 199 199 199 200 200 200 201 201 203 205 204 202 202 203 205 209 213 214 212 208 202 198
263 265 266 260 252 251 253 256 260 263 263 260 258 257 254 250 243 238 238 228 217 201 199 202 200 198 197 199 202 202 204 206 208 208 207 206 205 206 209 213 213 209 204 201
277 273 269 266 265 266 266 263 261 262 261 258 254 251 250 252 254 248 244 231 217 204 202 202 198 196 195 201 202 203 206 208 211 211 210 209 209 207 206 206 206 205 201 196
283 283 282 282 280 275 273 271 270 266 263 260 255 250 246 237 241 257 254 240 216 200 202 200 194 195 197 201 201 204 207 210 210 208 208 206 206 204 202 202 200 194 189 185
282 280 280 282 284 283 281 276 270 264 258 256 255 248 243 241 243 258 260 244 223 207 202 199 198 200 202 198 199 203 207 208 208 208 208 207 207 203 198 194 190 184 178 174
289 289 293 296 295 289 285 280 273 265 254 248 253 251 242 238 239 245 252 240 220 210 208 204 198 195 193 193 196 202 205 203 200 200 203 203 199 195 191 183 177 169 163 160